• In Slovakia
  • List of Countries
  • For 7 days
  • Water Temperature
  • Satellite Maps
  • Weather Map
  • Weather Widgets
  • user-avatar
    Login

    Hourly Weather Wersele

    Today, 19 September, Wednesday

    Time Temperature Precipitation Wind Pressure Humidity
    00:00 +14°C° 0 mm 3 mps 740 mmHg 80%
    01:00 +14°C° 0 mm 3 mps 740 mmHg 81%
    02:00 +14°C° 0 mm 3 mps 739 mmHg 84%
    03:00 +14°C° 0 mm 3 mps 739 mmHg 85%
    04:00 +13°C° 0 mm 3 mps 739 mmHg 86%
    05:00 +13°C° 0 mm 3 mps 739 mmHg 87%
    06:00 +14°C° 0 mm 3 mps 739 mmHg 84%
    07:00 +15°C° 0 mm 4 mps 739 mmHg 81%
    08:00 +16°C° 0 mm 3 mps 739 mmHg 78%
    09:00 +18°C° 0 mm 3 mps 739 mmHg 73%
    10:00 +20°C° 0 mm 4 mps 739 mmHg 69%
    11:00 +22°C° 0 mm 4 mps 740 mmHg 64%
    12:00 +23°C° 0 mm 4 mps 740 mmHg 60%
    13:00 +25°C° 0 mm 4 mps 740 mmHg 57%
    14:00 +27°C° 0 mm 4 mps 739 mmHg 52%
    15:00 +27°C° 0 mm 4 mps 739 mmHg 55%
    16:00 +26°C° 0 mm 3 mps 740 mmHg 58%
    17:00 +26°C° 0 mm 3 mps 740 mmHg 61%
    18:00 +23°C° 0 mm 2 mps 740 mmHg 69%
    19:00 +20°C° 0 mm 2 mps 740 mmHg 78%
    20:00 +18°C° 0 mm 2 mps 740 mmHg 86%
    21:00 +18°C° 0 mm 1 mps 740 mmHg 87%
    22:00 +16°C° 0 mm 1 mps 740 mmHg 88%
    23:00 +16°C° 0 mm 1 mps 740 mmHg 89%

    Tomorrow, 20 September, Thursday

    Time Temperature Precipitation Wind Pressure Humidity
    00:00 +15°C° 0 mm 1 mps 740 mmHg 89%
    01:00 +15°C° 0 mm 1 mps 740 mmHg 88%
    02:00 +15°C° 0 mm 1 mps 740 mmHg 88%
    03:00 +15°C° 0 mm 1 mps 740 mmHg 89%
    04:00 +15°C° 0 mm 1 mps 740 mmHg 89%
    05:00 +15°C° 0 mm 1 mps 740 mmHg 89%
    06:00 +16°C° 0 mm 1 mps 740 mmHg 87%
    07:00 +16°C° 0 mm 2 mps 740 mmHg 84%
    08:00 +17°C° 0 mm 2 mps 741 mmHg 82%
    09:00 +20°C° 0 mm 2 mps 741 mmHg 74%
    10:00 +22°C° 0 mm 3 mps 741 mmHg 66%
    11:00 +25°C° 0 mm 3 mps 741 mmHg 58%
    12:00 +26°C° 0 mm 3 mps 741 mmHg 55%
    13:00 +27°C° 0 mm 3 mps 741 mmHg 53%
    14:00 +28°C° 0 mm 4 mps 741 mmHg 50%
    15:00 +27°C° 0 mm 3 mps 741 mmHg 54%
    16:00 +26°C° 0 mm 2 mps 740 mmHg 58%
    17:00 +26°C° 0 mm 2 mps 740 mmHg 62%
    18:00 +24°C° 0 mm 2 mps 740 mmHg 65%
    19:00 +23°C° 0 mm 2 mps 740 mmHg 69%
    20:00 +20°C° 0 mm 2 mps 740 mmHg 73%
    21:00 +20°C° 0 mm 2 mps 740 mmHg 74%
    22:00 +19°C° 0 mm 2 mps 740 mmHg 74%
    23:00 +19°C° 0 mm 2 mps 740 mmHg 75%

    Day after tomorrow, 21 September, Friday

    Time Temperature Precipitation Wind Pressure Humidity
    00:00 +19°C° 0 mm 2 mps 740 mmHg 76%
    01:00 +18°C° 0 mm 2 mps 740 mmHg 78%
    02:00 +18°C° 0 mm 2 mps 740 mmHg 79%
    03:00 +17°C° 0 mm 3 mps 739 mmHg 80%
    04:00 +17°C° 0 mm 3 mps 739 mmHg 81%
    05:00 +17°C° 0 mm 3 mps 739 mmHg 82%
    06:00 +17°C° 0 mm 3 mps 739 mmHg 79%
    07:00 +18°C° 0 mm 3 mps 739 mmHg 76%
    08:00 +19°C° 0 mm 4 mps 739 mmHg 73%
    09:00 +20°C° 0 mm 4 mps 739 mmHg 66%
    10:00 +22°C° 0 mm 5 mps 739 mmHg 60%
    11:00 +25°C° 0 mm 5 mps 739 mmHg 53%
    12:00 +24°C° 0 mm 6 mps 738 mmHg 49%
    13:00 +26°C° 0 mm 6 mps 738 mmHg 46%
    14:00 +26°C° 0 mm 6 mps 737 mmHg 43%
    15:00 +26°C° 0 mm 6 mps 736 mmHg 46%
    16:00 +25°C° 0 mm 5 mps 736 mmHg 49%
    17:00 +23°C° 0 mm 5 mps 735 mmHg 51%
    18:00 +22°C° 0 mm 5 mps 735 mmHg 53%
    19:00 +22°C° 0 mm 6 mps 734 mmHg 55%
    20:00 +21°C° 0 mm 6 mps 733 mmHg 56%
    21:00 +21°C° 0 mm 6 mps 733 mmHg 56%
    22:00 +21°C° 0 mm 6 mps 733 mmHg 56%
    23:00 +20°C° 0 mm 7 mps 733 mmHg 57%

    22 September, Saturday

    Time Temperature Precipitation Wind Pressure Humidity
    00:00 +17°C° 0.1 mm 6 mps 733 mmHg 63%
    01:00 +15°C° 0.1 mm 6 mps 734 mmHg 69%
    02:00 +14°C° 0.1 mm 6 mps 734 mmHg 76%
    03:00 +13°C° 0.4 mm 5 mps 734 mmHg 80%
    04:00 +12°C° 0.4 mm 4 mps 735 mmHg 84%
    05:00 +11°C° 0.4 mm 4 mps 735 mmHg 89%
    06:00 +11°C° 0 mm 4 mps 736 mmHg 85%
    07:00 +10°C° 0 mm 5 mps 736 mmHg 81%
    08:00 +10°C° 0 mm 5 mps 736 mmHg 77%
    09:00 +11°C° 0 mm 6 mps 737 mmHg 69%
    10:00 +13°C° 0 mm 6 mps 737 mmHg 62%
    11:00 +14°C° 0 mm 7 mps 737 mmHg 54%
    12:00 +14°C° 0.1 mm 7 mps 737 mmHg 54%
    13:00 +15°C° 0.1 mm 7 mps 737 mmHg 53%
    14:00 +15°C° 0.1 mm 6 mps 737 mmHg 52%
    15:00 +14°C° 0.2 mm 6 mps 737 mmHg 55%
    16:00 +14°C° 0.2 mm 5 mps 736 mmHg 59%
    17:00 +13°C° 0.2 mm 4 mps 736 mmHg 62%
    18:00 +12°C° 0 mm 4 mps 736 mmHg 68%
    19:00 +11°C° 0 mm 3 mps 736 mmHg 74%
    20:00 +9°C° 0 mm 2 mps 736 mmHg 80%
    21:00 +9°C° 0 mm 3 mps 736 mmHg 79%
    22:00 +9°C° 0 mm 3 mps 736 mmHg 79%
    23:00 +8°C° 0 mm 4 mps 737 mmHg 78%

    23 September, Sunday

    Time Temperature Precipitation Wind Pressure Humidity
    00:00 +8°C° 0 mm 4 mps 736 mmHg 79%
    01:00 +8°C° 0 mm 4 mps 736 mmHg 79%
    02:00 +8°C° 0 mm 5 mps 736 mmHg 80%
    03:00 +7°C° 0 mm 5 mps 736 mmHg 80%
    04:00 +7°C° 0 mm 5 mps 736 mmHg 80%
    05:00 +7°C° 0 mm 5 mps 736 mmHg 81%
    06:00 +7°C° 0 mm 6 mps 736 mmHg 79%
    07:00 +7°C° 0 mm 6 mps 736 mmHg 77%
    08:00 +8°C° 0 mm 7 mps 736 mmHg 75%
    09:00 +9°C° 0 mm 7 mps 736 mmHg 71%
    10:00 +10°C° 0 mm 7 mps 736 mmHg 66%
    11:00 +11°C° 0 mm 7 mps 737 mmHg 62%
    12:00 +12°C° 0.1 mm 7 mps 736 mmHg 60%
    13:00 +12°C° 0.1 mm 7 mps 736 mmHg 57%
    14:00 +14°C° 0.1 mm 7 mps 736 mmHg 55%
    15:00 +13°C° 0.1 mm 6 mps 736 mmHg 57%
    16:00 +13°C° 0.1 mm 5 mps 736 mmHg 58%
    17:00 +13°C° 0.1 mm 4 mps 736 mmHg 60%
    18:00 +11°C° 0 mm 3 mps 735 mmHg 63%
    19:00 +10°C° 0 mm 2 mps 735 mmHg 67%
    20:00 +9°C° 0 mm 2 mps 735 mmHg 70%
    21:00 +9°C° 0 mm 2 mps 734 mmHg 68%
    22:00 +9°C° 0 mm 2 mps 734 mmHg 65%
    23:00 +9°C° 0 mm 3 mps 733 mmHg 62%

    24 September, Monday

    Time Temperature Precipitation Wind Pressure Humidity
    00:00 +9°C° 0.2 mm 3 mps 732 mmHg 66%
    01:00 +8°C° 0.2 mm 4 mps 731 mmHg 70%
    02:00 +8°C° 0.2 mm 4 mps 730 mmHg 74%
    03:00 +8°C° 0.8 mm 5 mps 728 mmHg 79%
    04:00 +8°C° 0.8 mm 6 mps 726 mmHg 85%
    05:00 +6°C° 0.8 mm 7 mps 725 mmHg 90%
    06:00 +8°C° 2.7 mm 7 mps 723 mmHg 91%
    07:00 +8°C° 2.7 mm 7 mps 722 mmHg 91%
    08:00 +8°C° 2.7 mm 7 mps 721 mmHg 92%
    09:00 +9°C° 1.8 mm 7 mps 720 mmHg 92%
    10:00 +10°C° 1.8 mm 6 mps 719 mmHg 91%
    11:00 +11°C° 1.8 mm 6 mps 718 mmHg 91%
    12:00 +11°C° 0.9 mm 6 mps 717 mmHg 89%
    13:00 +12°C° 0.9 mm 5 mps 717 mmHg 88%
    14:00 +12°C° 0.9 mm 4 mps 716 mmHg 86%
    15:00 +12°C° 0.6 mm 4 mps 716 mmHg 88%
    16:00 +11°C° 0.6 mm 3 mps 715 mmHg 90%
    17:00 +11°C° 0.6 mm 3 mps 715 mmHg 92%
    18:00 +10°C° 0.8 mm 4 mps 716 mmHg 92%
    19:00 +9°C° 0.8 mm 5 mps 716 mmHg 93%
    20:00 +8°C° 0.8 mm 6 mps 717 mmHg 94%
    21:00 +6°C° 1.2 mm 8 mps 718 mmHg 91%
    22:00 +6°C° 1.2 mm 9 mps 720 mmHg 89%
    23:00 +4°C° 1.2 mm 11 mps 721 mmHg 86%
    Show more